1494032401.15,61878,14.69,73574.3,0.55,-0.29,-0.19,0,*4E
1494032402.37,61879,14.69,73572.0,0.55,-0.23,-0.19,0,*45
1494032403.59,61880,14.69,73574.0,0.55,-0.29,-0.23,0,*40
1494032404.8,61881,14.69,73572.3,0.55,-0.29,-0.23,0,*41
1494032406.04,61882,14.69,73572.8,0.55,-0.23,-0.23,0,*48
1494032407.25,61883,14.69,73572.3,0.55,-0.29,-0.23,0,*43
1494032408.5,61884,14.69,73574.3,0.55,-0.23,-0.23,0,*4E
1494032409.71,61885,14.69,73572.3,0.55,-0.29,-0.23,0,*45
1494032410.9,61886,14.69,73574.3,0.57,-0.29,-0.23,0,*44
1494032412.14,61887,14.69,73572.0,0.55,-0.23,-0.23,0,*4D
1494032413.35,61888,14.69,73572.5,0.53,-0.27,-0.23,0,*40
1494032414.54,61889,14.69,73568.8,0.55,-0.29,-0.19,0,*40
1494032415.78,61890,14.69,73574.8,0.55,-0.23,-0.23,0,*4B
1494032417.0,61891,14.69,73572.0,0.55,-0.29,-0.23,0,*40
1494032418.21,61892,14.69,73574.5,0.55,-0.29,-0.23,0,*43
1494032419.42,61893,14.69,73572.3,0.55,-0.29,-0.23,0,*42
1494032420.64,61894,14.69,73572.0,0.55,-0.29,-0.23,0,*45
1494032421.83,61895,14.69,73572.0,0.55,-0.29,-0.29,0,*4E
1494032423.04,61896,14.69,73574.8,0.55,-0.29,-0.23,0,*47
1494032424.23,61897,14.69,73570.5,0.53,-0.33,-0.27,0,*4F
1494032425.41,61898,14.69,73574.5,0.53,-0.33,-0.27,0,*40
1494032426.6,61899,14.69,73572.8,0.53,-0.33,-0.27,0,*41
1494032427.79,61900,14.69,73570.3,0.53,-0.37,-0.27,0,*44
1494032428.99,61901,14.69,73570.3,0.53,-0.37,-0.27,0,*45
1494032430.15,61902,14.75,73574.3,0.53,-0.37,-0.33,0,*43
1494032431.32,61903,14.69,73572.8,0.53,-0.45,-0.33,0,*47
1494032432.51,61904,14.69,73570.3,0.53,-0.33,-0.27,0,*44
1494032433.73,61905,14.69,73572.5,0.53,-0.27,-0.27,0,*40
1494032434.94,61906,14.69,73572.3,0.55,-0.29,-0.23,0,*4F
1494032436.15,61907,14.75,73572.5,0.55,-0.29,-0.23,0,*4E
1494032437.37,61908,14.75,73574.5,0.53,-0.27,-0.27,0,*4D
1494032438.56,61909,14.69,73570.5,0.53,-0.33,-0.23,0,*4D
1494032439.77,61910,14.69,73570.3,0.55,-0.29,-0.23,0,*48
1494032440.98,61911,14.69,73568.0,0.55,-0.29,-0.23,0,*49
1494032442.2,61912,14.69,73570.5,0.55,-0.29,-0.23,0,*4A
1494032443.44,61913,14.69,73570.8,0.55,-0.23,-0.23,0,*41
1494032444.65,61914,14.69,73568.3,0.55,-0.29,-0.23,0,*4C
1494032445.84,61915,14.69,73568.0,0.53,-0.33,-0.27,0,*44
1494032447.05,61916,14.69,73568.5,0.55,-0.33,-0.23,0,*45
1494032448.27,61917,14.69,73570.0,0.55,-0.29,-0.23,0,*4F
1494032449.48,61918,14.69,73570.3,0.55,-0.29,-0.23,0,*40
1494032450.69,61919,14.69,73572.8,0.55,-0.29,-0.23,0,*41
1494032451.91,61920,14.69,73570.0,0.55,-0.29,-0.23,0,*4B
1494032453.09,61921,14.69,73570.8,0.53,-0.33,-0.27,0,*43
1494032454.29,61922,14.69,73568.3,0.53,-0.37,-0.27,0,*44
1494032455.48,61923,14.69,73570.5,0.53,-0.37,-0.27,0,*45
1494032456.64,61924,14.69,73572.0,0.53,-0.33,-0.33,0,*43
1494032457.86,61925,14.69,73568.3,0.55,-0.29,-0.23,0,*4E
1494032459.1,61926,14.69,73570.0,0.55,-0.23,-0.23,0,*47
1494032460.34,61927,14.69,73570.0,0.55,-0.23,-0.23,0,*46
1494032461.53,61928,14.69,73568.5,0.55,-0.29,-0.19,0,*4A
1494032462.72,61929,14.69,73570.0,0.55,-0.29,-0.19,0,*4B
1494032463.92,61930,14.69,73570.0,0.55,-0.29,-0.19,0,*43
1494032465.13,61931,14.69,73568.3,0.53,-0.27,-0.23,0,*43
1494032466.35,61932,14.69,73568.5,0.53,-0.27,-0.23,0,*40
1494032467.53,61933,14.69,73570.8,0.53,-0.33,-0.23,0,*44
1494032468.75,61934,14.69,73568.0,0.55,-0.23,-0.19,0,*4D
1494032469.95,61935,14.69,73564.8,0.57,-0.23,-0.19,0,*4E
1494032471.14,61936,14.69,73566.8,0.55,-0.29,-0.19,0,*45
1494032472.36,61937,14.69,73570.3,0.55,-0.23,-0.19,0,*4E
1494032473.58,61938,14.69,73566.3,0.55,-0.23,-0.19,0,*41
1494032474.77,61939,14.69,73566.3,0.57,-0.23,-0.19,0,*42
1494032475.99,61940,14.69,73564.3,0.55,-0.23,-0.19,0,*4E
1494032477.21,61941,14.69,73566.8,0.53,-0.27,-0.23,0,*44
1494032478.4,61942,14.69,73566.5,0.57,-0.23,-0.19,0,*4E
1494032479.59,61943,14.69,73566.8,0.55,-0.29,-0.19,0,*47
1494032480.79,61944,14.69,73564.5,0.55,-0.29,-0.19,0,*40
1494032482.01,61945,14.75,73570.0,0.55,-0.23,-0.15,0,*47
1494032483.23,61946,14.69,73568.5,0.55,-0.23,-0.19,0,*48
1494032484.45,61947,14.69,73564.5,0.55,-0.23,-0.19,0,*49
1494032485.64,61948,14.69,73566.0,0.57,-0.23,-0.19,0,*44
1494032486.86,61949,14.69,73568.3,0.53,-0.27,-0.23,0,*4C
1494032488.08,61950,14.69,73568.5,0.55,-0.23,-0.19,0,*4F
1494032489.3,61951,14.69,73564.0,0.55,-0.23,-0.19,0,*4E
1494032490.49,61952,14.69,73566.8,0.55,-0.29,-0.19,0,*47
1494032491.68,61953,14.69,73566.5,0.55,-0.29,-0.19,0,*46
1494032492.88,61954,14.69,73564.8,0.57,-0.23,-0.19,0,*49
1494032494.07,61955,14.69,73566.8,0.57,-0.23,-0.19,0,*48
1494032495.29,61956,14.69,73566.3,0.55,-0.23,-0.19,0,*49
1494032496.51,61957,14.69,73570.0,0.55,-0.23,-0.19,0,*48
1494032497.73,61958,14.69,73566.8,0.55,-0.23,-0.19,0,*47
1494032498.95,61959,14.69,73570.5,0.55,-0.23,-0.19,0,*46
1494032500.15,61960,14.69,73570.3,0.55,-0.29,-0.15,0,*4A
1494032501.37,61961,14.69,73570.0,0.55,-0.23,-0.19,0,*4D
1494032502.56,61962,14.69,73568.3,0.55,-0.29,-0.19,0,*44
1494032503.75,61963,14.69,73572.3,0.55,-0.29,-0.19,0,*45
1494032504.95,61964,14.69,73570.5,0.57,-0.23,-0.15,0,*46
1494032506.14,61965,14.69,73570.3,0.57,-0.23,-0.15,0,*47
1494032507.36,61966,14.69,73568.5,0.55,-0.23,-0.19,0,*4A
1494032508.56,61967,14.69,73570.3,0.57,-0.23,-0.15,0,*45
1494032509.75,61968,14.69,73566.5,0.57,-0.23,-0.19,0,*46
1494032510.92,61969,14.69,73568.0,0.57,-0.29,-0.15,0,*41
1494032512.11,61970,14.69,73568.3,0.57,-0.23,-0.19,0,*4F
1494032513.31,61971,14.69,73570.3,0.57,-0.23,-0.15,0,*42
1494032514.5,61972,14.69,73568.0,0.57,-0.23,-0.15,0,*41
1494032515.72,61973,14.69,73568.3,0.55,-0.23,-0.19,0,*4E
1494032516.94,61974,14.69,73568.8,0.55,-0.23,-0.19,0,*49
1494032518.16,61975,14.69,73568.5,0.55,-0.23,-0.19,0,*48
1494032519.38,61976,14.69,73566.8,0.55,-0.23,-0.19,0,*4B
1494032520.58,61977,14.69,73570.0,0.57,-0.23,-0.15,0,*44
1494032521.77,61978,14.69,73570.8,0.57,-0.23,-0.15,0,*4B
1494032522.97,61979,14.69,73568.5,0.57,-0.23,-0.19,0,*46
1494032524.16,61980,14.69,73570.0,0.55,-0.29,-0.15,0,*44
1494032525.35,61981,14.69,73570.8,0.55,-0.29,-0.19,0,*49
1494032526.58,61982,14.69,73574.8,0.55,-0.23,-0.15,0,*4C
1494032527.77,61983,14.69,73568.8,0.57,-0.23,-0.19,0,*43
1494032528.99,61984,14.75,73576.0,0.55,-0.23,-0.19,0,*46
1494032530.21,61985,14.69,73570.8,0.55,-0.23,-0.19,0,*47
1494032531.4,61986,14.69,73572.5,0.55,-0.29,-0.15,0,*42
1494032532.63,61987,14.69,73568.0,0.55,-0.23,-0.19,0,*45
1494032533.85,61988,14.69,73574.3,0.55,-0.23,-0.19,0,*4A
1494032535.01,61989,14.69,73572.3,0.57,-0.29,-0.19,0,*43
1494032536.2,61990,14.69,73574.0,0.57,-0.23,-0.19,0,*41
1494032537.4,61991,14.69,73568.3,0.57,-0.23,-0.19,0,*40
1494032538.59,61992,14.69,73570.0,0.57,-0.23,-0.15,0,*4F
1494032539.78,61993,14.69,73572.3,0.55,-0.29,-0.19,0,*4A
1494032541.0,61994,14.69,73568.5,0.55,-0.23,-0.19,0,*47
1494032542.2,61995,14.69,73568.3,0.57,-0.23,-0.19,0,*44
1494032543.42,61996,14.69,73568.8,0.55,-0.23,-0.15,0,*49
1494032544.61,61997,14.69,73572.0,0.57,-0.23,-0.19,0,*46
1494032545.83,61998,14.69,73568.3,0.55,-0.23,-0.19,0,*4B
1494032547.03,61999,14.69,73568.5,0.57,-0.23,-0.19,0,*48
1494032548.25,62000,14.69,73568.3,0.55,-0.23,-0.15,0,*4C
1494032549.47,62001,14.69,73566.8,0.55,-0.23,-0.19,0,*41
1494032550.66,62002,14.69,73568.5,0.57,-0.23,-0.15,0,*4C
1494032551.89,62003,14.69,73568.0,0.55,-0.23,-0.15,0,*4F
1494032553.08,62004,14.69,73568.3,0.57,-0.23,-0.15,0,*4A
1494032554.28,62005,14.69,73566.5,0.55,-0.29,-0.19,0,*4F
1494032555.47,62006,14.69,73568.0,0.57,-0.23,-0.19,0,*44
1494032556.66,62007,14.69,73568.3,0.55,-0.29,-0.15,0,*41
1494032557.88,62008,14.69,73568.5,0.55,-0.23,-0.19,0,*48
1494032559.08,62009,14.69,73568.5,0.57,-0.23,-0.15,0,*47
1494032560.27,62010,14.69,73570.3,0.57,-0.23,-0.15,0,*4F
1494032561.47,62011,14.69,73570.0,0.57,-0.23,-0.15,0,*4E
1494032562.66,62012,14.69,73574.0,0.57,-0.23,-0.15,0,*4D
1494032563.85,62013,14.69,73566.5,0.57,-0.33,-0.23,0,*48
1494032565.09,62014,14.69,73570.0,0.55,-0.23,-0.23,0,*4C
1494032566.29,62015,14.69,73568.0,0.57,-0.23,-0.19,0,*46
1494032567.48,62016,14.69,73572.5,0.57,-0.23,-0.15,0,*49
1494032568.67,62017,14.69,73574.0,0.57,-0.23,-0.19,0,*44
1494032569.87,62018,14.69,73570.8,0.57,-0.23,-0.15,0,*47
1494032571.06,62019,14.69,73568.5,0.57,-0.23,-0.19,0,*4A
1494032572.28,62020,14.69,73570.3,0.55,-0.23,-0.19,0,*42
1494032573.47,62021,14.69,73574.8,0.57,-0.23,-0.19,0,*41
1494032574.67,62022,14.69,73568.5,0.57,-0.23,-0.15,0,*4E
1494032575.86,62023,14.69,73570.0,0.57,-0.23,-0.19,0,*43
1494032577.06,62024,14.69,73568.5,0.57,-0.23,-0.19,0,*44
1494032578.28,62025,14.69,73572.5,0.55,-0.23,-0.19,0,*47
1494032579.47,62026,14.69,73572.0,0.57,-0.23,-0.15,0,*4A
1494032580.66,62027,14.69,73568.8,0.57,-0.23,-0.19,0,*47
1494032581.86,62028,14.69,73572.8,0.57,-0.23,-0.19,0,*48
1494032583.08,62029,14.69,73568.8,0.55,-0.23,-0.15,0,*47
1494032584.28,62030,14.69,73568.5,0.57,-0.23,-0.15,0,*4D
1494032585.45,62031,14.69,73568.0,0.57,-0.19,-0.15,0,*45
1494032586.62,62032,14.69,73570.0,0.57,-0.19,-0.19,0,*4A
1494032587.79,62033,14.69,73568.0,0.57,-0.19,-0.19,0,*4B
1494032588.96,62034,14.69,73572.5,0.57,-0.19,-0.19,0,*4C
1494032590.14,62035,14.69,73572.8,0.57,-0.19,-0.15,0,*41
1494032591.31,62036,14.69,73572.0,0.57,-0.19,-0.15,0,*42
1494032592.51,62037,14.69,73572.5,0.55,-0.19,-0.15,0,*41
1494032593.72,62038,14.69,73570.0,0.55,-0.19,-0.15,0,*4E
1494032594.93,62039,14.69,73570.5,0.55,-0.23,-0.19,0,*4A
1494032596.13,62040,14.69,73574.3,0.57,-0.23,-0.19,0,*46
1494032597.35,62041,14.69,73572.0,0.55,-0.23,-0.15,0,*49
1494032598.57,62042,14.69,73568.5,0.55,-0.23,-0.19,0,*46
1494032599.74,62043,14.69,73570.5,0.57,-0.19,-0.15,0,*40
1494032600.92,62044,14.69,73574.3,0.57,-0.19,-0.15,0,*47
1494032602.09,62045,14.69,73568.0,0.57,-0.19,-0.19,0,*4A
1494032603.31,62046,14.69,73568.5,0.55,-0.23,-0.15,0,*4E
1494032604.54,62047,14.69,73572.5,0.55,-0.23,-0.15,0,*4F
1494032605.73,62048,14.69,73570.8,0.57,-0.23,-0.19,0,*4E
1494032606.92,62049,14.69,73572.0,0.57,-0.23,-0.19,0,*4F
1494032608.11,62050,14.69,73570.5,0.57,-0.23,-0.19,0,*47
1494032609.29,62051,14.69,73574.0,0.57,-0.19,-0.15,0,*43
1494032610.48,62052,14.69,73570.8,0.57,-0.23,-0.19,0,*45
1494032611.7,62053,14.69,73568.5,0.55,-0.23,-0.15,0,*4A
1494032612.9,62054,14.69,73570.3,0.57,-0.23,-0.19,0,*43
1494032614.09,62055,14.69,73572.3,0.57,-0.23,-0.19,0,*42
1494032615.29,62056,14.69,73568.3,0.57,-0.23,-0.15,0,*4D
1494032616.51,62057,14.69,73570.3,0.55,-0.23,-0.15,0,*4E
1494032617.73,62058,14.69,73568.8,0.55,-0.23,-0.19,0,*4D
1494032618.92,62059,14.69,73574.3,0.57,-0.23,-0.19,0,*4E
1494032620.11,62060,14.69,73568.5,0.57,-0.23,-0.19,0,*44
1494032621.34,62061,14.69,73568.8,0.55,-0.23,-0.15,0,*4B
1494032622.53,62062,14.69,73570.0,0.57,-0.23,-0.19,0,*46
1494032623.7,62063,14.69,73568.3,0.57,-0.19,-0.15,0,*42
1494032624.88,62064,14.69,73570.0,0.57,-0.19,-0.15,0,*45
1494032626.05,62065,14.75,73574.3,0.57,-0.19,-0.15,0,*44
1494032627.22,62066,14.69,73566.3,0.57,-0.19,-0.19,0,*4B
1494032628.4,62067,14.69,73566.3,0.57,-0.19,-0.15,0,*46
1494032629.57,62068,14.69,73566.0,0.57,-0.19,-0.15,0,*49
1494032630.74,62069,14.69,73564.0,0.57,-0.19,-0.15,0,*48
1494032631.92,62070,14.69,73568.0,0.57,-0.19,-0.15,0,*40
1494032633.09,62071,14.69,73570.3,0.57,-0.19,-0.15,0,*41
1494032634.29,62072,14.69,73568.0,0.57,-0.23,-0.15,0,*4B
1494032635.48,62073,14.69,73566.3,0.55,-0.29,-0.19,0,*4E
1494032636.7,62074,14.69,73570.3,0.55,-0.23,-0.15,0,*4F
1494032637.9,62075,14.69,73570.5,0.57,-0.23,-0.19,0,*40
1494032639.09,62076,14.69,73568.5,0.57,-0.23,-0.19,0,*43
1494032640.28,62077,14.69,73568.0,0.57,-0.23,-0.19,0,*42
1494032641.47,62078,14.69,73570.0,0.57,-0.23,-0.19,0,*4D
1494032642.67,62079,14.69,73568.3,0.57,-0.23,-0.15,0,*40
1494032643.87,62080,14.69,73570.0,0.57,-0.23,-0.15,0,*46
1494032645.04,62081,14.69,73570.8,0.57,-0.19,-0.19,0,*42
1494032646.23,62082,14.69,73570.0,0.57,-0.23,-0.15,0,*44
1494032647.43,62083,14.69,73568.8,0.57,-0.23,-0.15,0,*45
1494032648.62,62084,14.69,73564.5,0.57,-0.23,-0.19,0,*4E
1494032649.81,62085,14.69,73564.3,0.57,-0.23,-0.19,0,*4F
1494032650.99,62086,14.69,73570.3,0.57,-0.19,-0.19,0,*45
1494032652.16,62087,14.69,73568.3,0.57,-0.19,-0.19,0,*44
1494032653.33,62088,14.69,73564.3,0.57,-0.19,-0.15,0,*47
1494032654.52,62089,14.69,73566.3,0.57,-0.23,-0.19,0,*43
1494032655.75,62090,14.69,73570.8,0.55,-0.23,-0.15,0,*45
1494032656.97,62091,14.69,73570.8,0.55,-0.23,-0.15,0,*44
1494032658.16,62092,14.69,73570.8,0.57,-0.23,-0.19,0,*49
1494032659.38,62093,14.69,73572.3,0.55,-0.23,-0.15,0,*46
1494032660.58,62094,14.69,73568.5,0.57,-0.23,-0.15,0,*43
1494032661.77,62095,14.69,73568.3,0.57,-0.23,-0.19,0,*4E
1494032662.97,62096,14.69,73568.8,0.57,-0.23,-0.15,0,*41
1494032664.16,62097,14.69,73570.5,0.57,-0.23,-0.15,0,*40
1494032665.39,62098,14.69,73570.8,0.55,-0.23,-0.15,0,*4D
1494032666.58,62099,14.69,73570.8,0.57,-0.23,-0.19,0,*42
1494032667.77,62100,14.69,73570.0,0.57,-0.23,-0.15,0,*4F
1494032668.95,62101,14.69,73572.0,0.57,-0.19,-0.15,0,*47
1494032670.12,62102,14.69,73568.3,0.57,-0.19,-0.15,0,*44
1494032671.32,62103,14.69,73568.3,0.55,-0.19,-0.15,0,*47
1494032672.5,62104,14.69,73574.5,0.57,-0.19,-0.15,0,*42
1494032673.67,62105,14.69,73570.5,0.57,-0.19,-0.15,0,*43
1494032674.85,62106,14.69,73568.0,0.57,-0.19,-0.15,0,*40
1494032676.02,62107,14.69,73568.3,0.57,-0.19,-0.15,0,*41
1494032677.19,62108,14.69,73568.3,0.57,-0.19,-0.15,0,*4E
1494032678.37,62109,14.69,73572.3,0.57,-0.19,-0.15,0,*4F
1494032679.54,62110,14.69,73570.3,0.57,-0.19,-0.19,0,*4B
1494032680.74,62111,14.69,73572.0,0.55,-0.19,-0.19,0,*48
1494032681.91,62112,14.69,73570.3,0.57,-0.19,-0.15,0,*45
1494032683.08,62113,14.69,73570.0,0.57,-0.19,-0.19,0,*48
1494032684.26,62114,14.69,73574.5,0.57,-0.19,-0.15,0,*43
1494032685.43,62115,14.69,73572.3,0.57,-0.19,-0.15,0,*42
1494032686.6,62116,14.69,73574.0,0.57,-0.19,-0.15,0,*41
1494032687.78,62117,14.69,73572.8,0.57,-0.19,-0.15,0,*40
1494032688.95,62118,14.69,73570.5,0.57,-0.19,-0.15,0,*4F
1494032690.13,62119,14.69,73574.3,0.57,-0.19,-0.15,0,*4E
1494032691.3,62120,14.69,73574.5,0.57,-0.19,-0.19,0,*48
1494032692.47,62121,14.69,73574.8,0.57,-0.19,-0.15,0,*45
1494032693.64,62122,14.69,73568.8,0.57,-0.19,-0.19,0,*4A
1494032694.82,62123,14.69,73568.8,0.57,-0.19,-0.15,0,*47
1494032695.98,62124,14.69,73572.0,0.57,-0.19,-0.07,0,*73
1494032697.17,62125,14.69,73566.5,0.59,-0.15,-0.03,0,*74
1494032698.37,62126,14.69,73572.5,0.59,-0.15,-0.15,0,*40
1494032699.54,62127,14.69,73564.0,0.57,-0.19,-0.19,0,*4F
1494032700.72,62128,14.69,73570.0,0.57,-0.19,-0.15,0,*4C
1494032701.92,62129,14.69,73572.8,0.55,-0.19,-0.15,0,*4F
1494032703.09,62130,14.69,73568.0,0.57,-0.19,-0.15,0,*45
1494032704.27,62131,14.69,73568.8,0.57,-0.19,-0.15,0,*44
1494032705.46,62132,14.69,73572.3,0.59,-0.15,-0.11,0,*41
1494032706.66,62133,14.69,73572.5,0.59,-0.15,-0.11,0,*40
1494032707.85,62134,14.69,73574.0,0.59,-0.15,-0.03,0,*74
1494032709.02,62135,14.69,73570.0,0.57,-0.19,-0.19,0,*4C
1494032710.22,62136,14.69,73576.3,0.55,-0.19,-0.15,0,*41
1494032711.43,62137,14.69,73574.5,0.55,-0.19,-0.15,0,*40
1494032712.6,62138,14.69,73574.8,0.57,-0.19,-0.15,0,*4D
1494032713.77,62139,14.69,73570.0,0.57,-0.19,-0.15,0,*4C
1494032714.95,62140,14.69,73572.3,0.57,-0.19,-0.15,0,*42
1494032716.14,62141,14.69,73574.5,0.57,-0.23,-0.15,0,*4A
1494032717.34,62142,14.69,73572.8,0.57,-0.23,-0.15,0,*49
1494032718.53,62143,14.69,73572.8,0.57,-0.23,-0.15,0,*48
1494032719.73,62144,14.69,73574.0,0.59,-0.15,-0.15,0,*44
1494032720.93,62145,14.69,73570.8,0.59,-0.15,-0.15,0,*45
1494032722.13,62146,14.69,73574.3,0.59,-0.15,-0.11,0,*42
1494032723.33,62147,14.69,73572.5,0.59,-0.15,-0.15,0,*47
1494032724.52,62148,14.69,73574.3,0.59,-0.15,-0.11,0,*4C
1494032725.72,62149,14.69,73570.8,0.59,-0.15,-0.15,0,*49
1494032726.89,62150,14.69,73572.8,0.61,-0.11,-0.07,0,*7D
1494032728.09,62151,14.69,73574.3,0.59,-0.15,-0.11,0,*44
1494032729.29,62152,14.69,73574.8,0.59,-0.15,-0.11,0,*47
1494032730.49,62153,14.69,73570.0,0.59,-0.15,-0.11,0,*46
1494032731.68,62154,14.69,73570.0,0.59,-0.15,-0.11,0,*41
1494032732.88,62155,14.69,73568.8,0.59,-0.15,-0.11,0,*40
1494032734.08,62156,14.69,73574.5,0.59,-0.15,-0.11,0,*43
1494032735.28,62157,14.69,73568.3,0.59,-0.15,-0.11,0,*42
1494032736.48,62158,14.69,73570.0,0.59,-0.15,-0.15,0,*49
1494032737.68,62159,14.69,73568.5,0.59,-0.15,-0.15,0,*48
1494032738.87,62160,14.69,73570.3,0.59,-0.15,-0.11,0,*46
1494032740.07,62161,14.69,73574.0,0.59,-0.15,-0.15,0,*43
1494032741.27,62162,14.69,73574.5,0.59,-0.15,-0.11,0,*44
1494032742.47,62163,14.69,73572.8,0.59,-0.15,-0.11,0,*45
1494032743.67,62164,14.69,73574.8,0.59,-0.15,-0.15,0,*46
1494032744.86,62165,14.69,73572.5,0.59,-0.15,-0.03,0,*70
1494032746.05,62166,14.69,73570.8,0.59,-0.15,-0.15,0,*44
1494032747.25,62167,14.69,73574.8,0.59,-0.15,-0.11,0,*41
1494032748.45,62168,14.69,73574.3,0.59,-0.15,-0.11,0,*4E
1494032749.65,62169,14.69,73570.8,0.59,-0.15,-0.11,0,*4F
1494032750.85,62170,14.69,73572.3,0.59,-0.15,-0.15,0,*43
1494032752.05,62171,14.69,73570.3,0.59,-0.15,-0.11,0,*46
1494032753.25,62172,14.69,73574.5,0.59,-0.11,-0.11,0,*41
1494032754.44,62173,14.69,73572.5,0.59,-0.15,-0.03,0,*77
1494032755.62,62174,14.69,73570.8,0.59,-0.15,-0.03,0,*70
1494032756.8,62175,14.69,73572.5,0.61,-0.11,-0.07,0,*7A
1494032757.99,62176,14.69,73570.8,0.59,-0.15,-0.11,0,*41
1494032759.18,62177,14.69,73572.5,0.59,-0.15,-0.03,0,*73
1494032760.35,62178,14.69,73572.5,0.61,-0.11,-0.07,0,*77
1494032761.52,62179,14.69,73572.5,0.61,-0.11,-0.07,0,*76
1494032762.72,62180,14.69,73572.3,0.59,-0.15,-0.11,0,*48
1494032763.92,62181,14.69,73568.8,0.59,-0.15,-0.11,0,*49
1494032765.12,62182,14.69,73572.3,0.59,-0.15,-0.11,0,*4A
1494032766.32,62183,14.69,73572.5,0.59,-0.19,-0.11,0,*47
1494032767.49,62184,14.69,73572.8,0.61,-0.15,-0.07,0,*70
1494032768.65,62185,14.69,73570.5,0.61,-0.11,-0.07,0,*75
1494032769.85,62186,14.69,73572.8,0.59,-0.15,-0.11,0,*4E
1494032771.05,62187,14.69,73570.8,0.59,-0.15,-0.11,0,*4F
1494032772.25,62188,14.69,73570.5,0.59,-0.11,-0.15,0,*40
1494032773.45,62189,14.69,73568.5,0.59,-0.11,-0.07,0,*72
1494032774.65,62190,14.69,73574.5,0.59,-0.11,-0.11,0,*4D
1494032775.83,62191,14.69,73570.8,0.61,-0.11,-0.11,0,*47
1494032777.01,62192,14.69,73572.3,0.61,-0.11,-0.11,0,*44
1494032778.2,62193,14.69,73574.0,0.59,-0.15,-0.11,0,*4A
1494032779.4,62194,14.69,73574.8,0.59,-0.15,-0.11,0,*4D
1494032780.6,62195,14.69,73572.3,0.59,-0.15,-0.15,0,*48
1494032781.8,62196,14.69,73572.3,0.59,-0.15,-0.15,0,*4B
1494032783.0,62197,14.69,73572.0,0.59,-0.19,-0.11,0,*42
1494032784.17,62198,14.69,73574.0,0.61,-0.15,-0.07,0,*7D
1494032785.37,62199,14.69,73572.5,0.59,-0.19,-0.11,0,*4C
1494032786.54,62200,14.69,73574.5,0.61,-0.11,-0.07,0,*7B
1494032787.71,62201,14.69,73570.0,0.61,-0.11,-0.11,0,*4D
1494032788.91,62202,14.69,73574.5,0.59,-0.15,-0.19,0,*49
1494032790.1,62203,14.69,73572.3,0.59,-0.49,-0.53,0,*4F
1494032791.3,62204,14.69,73568.5,0.59,-0.53,-0.73,0,*41
1494032792.49,62205,14.69,73572.3,0.59,-0.61,-0.77,0,*45
1494032793.7,62206,14.69,73570.3,0.59,-0.65,-0.85,0,*4F
1494032794.89,62207,14.69,73570.5,0.59,-0.61,-0.77,0,*47
1494032796.08,62208,14.69,73574.3,0.57,-0.65,-0.89,0,*43
1494032797.25,62209,14.69,73574.5,0.57,-0.65,-0.77,0,*43
1494032798.42,62210,14.69,73570.0,0.57,-0.65,-0.81,0,*42
1494032799.58,62211,14.69,73572.3,0.57,-0.57,-0.81,0,*42
1494032800.75,62212,14.69,73572.3,0.57,-0.57,-0.77,0,*48
1494032801.94,62213,14.69,73568.8,0.57,-0.65,-0.89,0,*49
1494032803.11,62214,14.69,73570.5,0.57,-0.65,-0.81,0,*46
1494032804.28,62215,14.69,73570.8,0.57,-0.57,-0.77,0,*4F
1494032805.45,62216,14.69,73570.3,0.57,-0.57,-0.77,0,*4C
1494032806.64,62217,14.69,73574.8,0.55,-0.57,-0.81,0,*46
1494032807.81,62218,14.69,73574.5,0.57,-0.65,-0.81,0,*4A
1494032808.98,62219,14.69,73572.3,0.57,-0.57,-0.81,0,*4A
1494032810.15,62220,14.69,73572.5,0.57,-0.57,-0.77,0,*49
1494032811.34,62221,14.69,73572.5,0.55,-0.57,-0.77,0,*4A
1494032812.51,62222,14.69,73572.5,0.57,-0.57,-0.81,0,*42
1494032813.68,62223,14.69,73574.8,0.57,-0.57,-0.77,0,*4A
1494032814.85,62224,14.69,73574.5,0.57,-0.53,-0.77,0,*49
1494032816.02,62225,14.69,73572.8,0.57,-0.57,-0.77,0,*4C
1494032817.22,62226,14.69,73572.5,0.55,-0.57,-0.69,0,*42
1494032818.38,62227,14.69,73574.8,0.57,-0.53,-0.77,0,*4A
1494032819.56,62228,14.69,73572.0,0.57,-0.57,-0.77,0,*41
1494032820.75,62229,14.69,73572.3,0.55,-0.53,-0.77,0,*46
1494032821.92,62230,14.69,73568.8,0.57,-0.53,-0.69,0,*43
1494032823.08,62231,14.69,73572.3,0.57,-0.53,-0.69,0,*42
1494032824.28,62232,14.69,73572.3,0.55,-0.53,-0.77,0,*4C
1494032825.48,62233,14.69,73572.8,0.55,-0.53,-0.69,0,*42
1494032826.67,62234,14.69,73572.3,0.55,-0.53,-0.69,0,*45
1494032827.86,62235,14.69,73572.8,0.55,-0.45,-0.69,0,*43
1494032829.06,62236,14.69,73572.0,0.55,-0.53,-0.69,0,*47
1494032830.23,62237,14.69,73572.8,0.57,-0.53,-0.69,0,*44
1494032831.42,62238,14.69,73570.5,0.55,-0.45,-0.69,0,*4E
1494032832.61,62239,14.69,73574.8,0.55,-0.57,-0.69,0,*4C
1494032833.81,62240,14.69,73572.5,0.55,-0.53,-0.69,0,*46
1494032835.0,62241,14.69,73572.3,0.55,-0.53,-0.69,0,*47
1494032836.2,62242,14.69,73574.3,0.55,-0.53,-0.77,0,*4B
1494032837.4,62243,14.69,73574.8,0.55,-0.57,-0.77,0,*4E
1494032838.59,62244,14.69,73572.3,0.55,-0.57,-0.69,0,*46
1494032839.76,62245,14.69,73574.5,0.57,-0.53,-0.69,0,*41
1494032840.92,62246,14.69,73574.3,0.57,-0.53,-0.65,0,*4E
1494032842.08,62247,14.69,73568.8,0.57,-0.45,-0.65,0,*48
1494032843.25,62248,14.69,73574.0,0.57,-0.57,-0.69,0,*48
1494032844.45,62249,14.69,73574.5,0.55,-0.53,-0.69,0,*4F
1494032845.61,62250,14.69,73572.8,0.57,-0.53,-0.69,0,*45
1494032846.81,62251,14.69,73570.5,0.55,-0.53,-0.69,0,*46
1494032848.0,62252,14.69,73568.8,0.55,-0.57,-0.69,0,*41
1494032849.2,62253,14.69,73572.3,0.55,-0.53,-0.69,0,*44
1494032850.36,62254,14.69,73572.3,0.57,-0.53,-0.69,0,*41
1494032851.56,62255,14.69,73572.8,0.55,-0.53,-0.69,0,*42
1494032852.75,62256,14.69,73568.0,0.55,-0.53,-0.69,0,*41
1494032853.95,62257,14.69,73570.5,0.55,-0.45,-0.69,0,*47
1494032855.14,62258,14.69,73570.8,0.55,-0.45,-0.69,0,*48
1494032856.31,62259,14.69,73568.3,0.57,-0.53,-0.69,0,*4C
1494032857.47,62260,14.69,73574.0,0.57,-0.53,-0.65,0,*4A
1494032858.66,62261,14.69,73566.3,0.55,-0.45,-0.65,0,*4E
1494032859.85,62262,14.69,73568.5,0.55,-0.53,-0.65,0,*4A
1494032861.02,62263,14.69,73574.5,0.57,-0.45,-0.69,0,*42
1494032862.21,62264,14.69,73570.8,0.55,-0.53,-0.69,0,*40
1494032863.4,62265,14.69,73570.8,0.55,-0.45,-0.69,0,*46
1494032864.59,62266,14.69,73572.8,0.55,-0.53,-0.65,0,*4E
1494032865.79,62267,14.69,73574.5,0.55,-0.45,-0.69,0,*44
1494032866.96,62268,14.69,73568.5,0.57,-0.45,-0.77,0,*46
1494032868.12,62269,14.69,73572.5,0.57,-0.45,-0.65,0,*44
1494032869.31,62270,14.69,73572.0,0.55,-0.45,-0.65,0,*4E
1494032870.5,62271,14.69,73574.8,0.55,-0.45,-0.69,0,*43
1494032871.7,62272,14.69,73574.3,0.55,-0.57,-0.69,0,*43
1494032872.86,62273,14.69,73572.0,0.57,-0.53,-0.69,0,*44
1494032874.03,62274,14.69,73572.8,0.57,-0.53,-0.69,0,*43
1494032875.2,62275,14.69,73572.8,0.57,-0.65,-0.69,0,*47
1494032876.39,62276,14.69,73574.3,0.55,-0.53,-0.65,0,*4F
1494032877.55,62277,14.69,73570.3,0.57,-0.53,-0.65,0,*4C
1494032878.72,62278,14.69,73574.8,0.57,-0.45,-0.57,0,*45
1494032879.89,62279,14.69,73574.8,0.57,-0.45,-0.57,0,*44
1494032881.08,62280,14.69,73574.3,0.55,-0.45,-0.57,0,*40
1494032882.27,62281,14.69,73574.3,0.55,-0.45,-0.65,0,*40
1494032883.46,62282,14.69,73572.0,0.55,-0.45,-0.57,0,*42
1494032884.63,62283,14.69,73570.3,0.57,-0.45,-0.57,0,*41
1494032885.82,62284,14.69,73574.0,0.55,-0.53,-0.65,0,*42
1494032887.01,62285,14.69,73572.8,0.55,-0.45,-0.65,0,*44
1494032888.17,62286,14.69,73572.3,0.57,-0.45,-0.65,0,*45
1494032889.36,62287,14.69,73570.3,0.55,-0.45,-0.65,0,*46
1494032890.52,62288,14.69,73572.3,0.57,-0.53,-0.65,0,*4C
1494032891.71,62289,14.69,73568.8,0.55,-0.45,-0.65,0,*48
1494032892.88,62290,14.69,73576.0,0.57,-0.53,-0.65,0,*45
1494032894.04,62291,14.69,73574.3,0.57,-0.45,-0.65,0,*43
1494032895.2,62292,14.69,73578.8,0.57,-0.45,-0.65,0,*40
1494032896.39,62293,14.69,73572.0,0.55,-0.45,-0.65,0,*43
1494032897.59,62294,14.69,73574.3,0.55,-0.53,-0.57,0,*42
1494032898.75,62295,14.69,73572.5,0.57,-0.45,-0.65,0,*47
1494032899.92,62296,14.69,73574.5,0.57,-0.53,-0.69,0,*4F
1494032901.11,62297,14.69,73574.3,0.55,-0.53,-0.69,0,*4C
1494032902.27,62298,14.69,73572.0,0.57,-0.45,-0.65,0,*4A